TimeEDT,TemperatureF,Dew PointF,Humidity,Sea Level PressureIn,VisibilityMPH,Wind Direction,Wind SpeedMPH,Gust SpeedMPH,PrecipitationIn,Events,Conditions,WindDirDegrees,DateUTC
12:58 AM,52.0,51.8,99,30.28,10.0,Calm,Calm,-,N/A,,Partly Cloudy,0,2013-10-29 04:58:00
1:28 AM,51.8,51.8,100,30.27,2.5,NW,3.5,-,N/A,,Clear,320,2013-10-29 05:28:00
1:38 AM,50.0,50.0,100,30.27,2.0,North,3.5,-,N/A,,Clear,10,2013-10-29 05:38:00
1:48 AM,50.0,50.0,100,30.27,8.0,North,2.3,-,N/A,,Clear,10,2013-10-29 05:48:00
1:58 AM,50.0,49.8,99,30.28,6.0,Calm,Calm,-,N/A,,Clear,0,2013-10-29 05:58:00
2:28 AM,48.2,48.2,100,30.27,0.8,NNW,3.5,-,N/A,,Clear,330,2013-10-29 06:28:00
2:38 AM,48.2,48.2,100,30.27,9.0,North,2.3,-,N/A,,Clear,350,2013-10-29 06:38:00
2:58 AM,49.3,49.1,99,30.27,9.0,NW,3.5,-,N/A,,Clear,310,2013-10-29 06:58:00
3:28 AM,48.2,48.2,100,30.26,2.5,Calm,Calm,-,N/A,,Clear,0,2013-10-29 07:28:00
3:38 AM,50.0,50.0,100,30.26,3.0,Calm,Calm,-,N/A,,Clear,0,2013-10-29 07:38:00
3:48 AM,50.0,50.0,100,30.26,1.5,Calm,Calm,-,N/A,,Clear,0,2013-10-29 07:48:00
3:58 AM,48.7,48.7,100,30.27,0.8,Calm,Calm,-,N/A,,Clear,0,2013-10-29 07:58:00
4:08 AM,48.2,48.2,100,30.25,7.0,Calm,Calm,-,N/A,,Clear,0,2013-10-29 08:08:00
4:38 AM,48.2,48.2,100,30.27,2.0,NW,1.2,-,N/A,,Clear,310,2013-10-29 08:38:00
4:48 AM,48.2,48.2,100,30.27,1.0,NW,3.5,-,N/A,,Clear,320,2013-10-29 08:48:00
4:58 AM,46.4,46.4,100,30.28,2.5,Calm,Calm,-,N/A,,Clear,0,2013-10-29 08:58:00
5:08 AM,48.2,48.2,100,30.27,8.0,Calm,Calm,-,N/A,,Clear,0,2013-10-29 09:08:00
5:58 AM,47.7,47.7,100,30.30,4.0,Calm,Calm,-,N/A,,Clear,0,2013-10-29 09:58:00
6:18 AM,48.2,48.2,100,30.30,2.0,NW,3.5,-,N/A,,Clear,310,2013-10-29 10:18:00
6:28 AM,48.2,48.2,100,30.29,7.0,Calm,Calm,-,N/A,Fog,Shallow Fog,0,2013-10-29 10:28:00
6:58 AM,47.3,47.3,100,30.32,7.0,WNW,4.6,-,N/A,Fog,Shallow Fog,300,2013-10-29 10:58:00
7:58 AM,45.5,45.5,100,30.32,6.0,East,1.2,-,N/A,,Partly Cloudy,100,2013-10-29 11:58:00
8:58 AM,51.8,51.8,100,30.34,7.0,Calm,Calm,-,N/A,,Partly Cloudy,0,2013-10-29 12:58:00
9:58 AM,60.4,55.2,83,30.35,10.0,Calm,Calm,-,N/A,,Clear,0,2013-10-29 13:58:00
10:58 AM,67.1,54.9,65,30.35,10.0,Variable,3.5,-,N/A,,Clear,0,2013-10-29 14:58:00
11:58 AM,71.1,53.2,53,30.33,10.0,WSW,4.6,-,N/A,,Partly Cloudy,240,2013-10-29 15:58:00
12:58 PM,74.1,52.3,46,30.32,10.0,Variable,3.5,-,N/A,,Partly Cloudy,0,2013-10-29 16:58:00
1:58 PM,75.0,51.8,44,30.29,10.0,Variable,4.6,-,N/A,,Scattered Clouds,0,2013-10-29 17:58:00
2:58 PM,76.1,49.1,39,30.26,10.0,WSW,6.9,-,N/A,,Mostly Cloudy,240,2013-10-29 18:58:00
3:58 PM,76.1,50.2,40,30.26,10.0,NW,8.1,-,N/A,,Scattered Clouds,320,2013-10-29 19:58:00
4:58 PM,75.9,49.6,40,30.26,10.0,WNW,10.4,-,N/A,,Partly Cloudy,300,2013-10-29 20:58:00
5:58 PM,73.0,50.5,45,30.27,10.0,NW,5.8,-,N/A,,Scattered Clouds,310,2013-10-29 21:58:00
6:58 PM,63.3,53.1,69,30.27,10.0,Calm,Calm,-,N/A,,Partly Cloudy,0,2013-10-29 22:58:00
7:58 PM,58.6,53.4,83,30.29,10.0,Calm,Calm,-,N/A,,Clear,0,2013-10-29 23:58:00
8:58 PM,56.7,54.0,91,30.29,10.0,ENE,2.3,-,N/A,,Clear,60,2013-10-30 00:58:00
9:58 PM,53.2,50.7,91,30.30,10.0,Calm,Calm,-,N/A,,Clear,0,2013-10-30 01:58:00
10:58 PM,51.8,50.0,94,30.31,10.0,Calm,Calm,-,N/A,,Clear,0,2013-10-30 02:58:00
11:58 PM,51.8,50.9,97,30.30,10.0,Calm,Calm,-,N/A,,Clear,0,2013-10-30 03:58:00